Hourly Weather Alat

Today, 19 June, Saturday

Time Temperature Precipitation Wind Pressure Humidity
00:00 +33°C° 0 mm 3 mps 738 mmHg 11%
01:00 +31°C° 0 mm 3 mps 738 mmHg 11%
02:00 +31°C° 0 mm 3 mps 738 mmHg 12%
03:00 +30°C° 0 mm 3 mps 738 mmHg 12%
04:00 +29°C° 0 mm 3 mps 738 mmHg 13%
05:00 +31°C° 0 mm 3 mps 738 mmHg 11%
06:00 +34°C° 0 mm 3 mps 739 mmHg 10%
07:00 +36°C° 0 mm 3 mps 739 mmHg 9%
08:00 +38°C° 0 mm 4 mps 739 mmHg 8%
09:00 +40°C° 0 mm 4 mps 739 mmHg 7%
10:00 +42°C° 0 mm 5 mps 739 mmHg 6%
11:00 +44°C° 0 mm 6 mps 739 mmHg 6%
12:00 +45°C° 0 mm 7 mps 739 mmHg 7%
13:00 +45°C° 0 mm 7 mps 738 mmHg 8%
14:00 +45°C° 0 mm 9 mps 738 mmHg 8%
15:00 +45°C° 0 mm 10 mps 738 mmHg 8%
16:00 +44°C° 0 mm 11 mps 738 mmHg 8%
17:00 +43°C° 0 mm 10 mps 738 mmHg 9%
18:00 +42°C° 0 mm 9 mps 738 mmHg 10%
19:00 +39°C° 0 mm 8 mps 738 mmHg 11%
20:00 +38°C° 0 mm 9 mps 738 mmHg 14%
21:00 +37°C° 0 mm 9 mps 739 mmHg 17%
22:00 +34°C° 0 mm 9 mps 739 mmHg 20%
23:00 +33°C° 0 mm 9 mps 739 mmHg 19%

Tomorrow, 20 June, Sunday

Time Temperature Precipitation Wind Pressure Humidity
00:00 +31°C° 0 mm 9 mps 739 mmHg 18%
01:00 +29°C° 0 mm 10 mps 739 mmHg 17%
02:00 +28°C° 0 mm 9 mps 740 mmHg 16%
03:00 +27°C° 0 mm 9 mps 740 mmHg 16%
04:00 +26°C° 0 mm 9 mps 740 mmHg 15%
05:00 +26°C° 0 mm 9 mps 740 mmHg 15%
06:00 +26°C° 0 mm 10 mps 740 mmHg 15%
07:00 +27°C° 0 mm 10 mps 741 mmHg 15%
08:00 +29°C° 0 mm 11 mps 741 mmHg 13%
09:00 +31°C° 0 mm 11 mps 741 mmHg 12%
10:00 +33°C° 0 mm 11 mps 741 mmHg 10%
11:00 +34°C° 0 mm 11 mps 741 mmHg 9%
12:00 +36°C° 0 mm 11 mps 740 mmHg 9%
13:00 +37°C° 0 mm 11 mps 740 mmHg 8%
14:00 +37°C° 0 mm 11 mps 740 mmHg 8%
15:00 +37°C° 0 mm 11 mps 740 mmHg 8%
16:00 +37°C° 0 mm 11 mps 740 mmHg 7%
17:00 +36°C° 0 mm 10 mps 740 mmHg 7%
18:00 +34°C° 0 mm 9 mps 740 mmHg 7%
19:00 +33°C° 0 mm 8 mps 740 mmHg 7%
20:00 +32°C° 0 mm 9 mps 740 mmHg 8%
21:00 +31°C° 0 mm 9 mps 740 mmHg 9%
22:00 +29°C° 0 mm 10 mps 741 mmHg 10%
23:00 +28°C° 0 mm 10 mps 741 mmHg 12%

Day after tomorrow, 21 June, Monday

Time Temperature Precipitation Wind Pressure Humidity
00:00 +27°C° 0 mm 9 mps 740 mmHg 13%
01:00 +26°C° 0 mm 9 mps 740 mmHg 15%
02:00 +26°C° 0 mm 9 mps 740 mmHg 16%
03:00 +24°C° 0 mm 8 mps 740 mmHg 18%
04:00 +23°C° 0 mm 8 mps 741 mmHg 19%
05:00 +24°C° 0 mm 8 mps 741 mmHg 17%
06:00 +26°C° 0 mm 9 mps 741 mmHg 15%
07:00 +28°C° 0 mm 10 mps 742 mmHg 13%
08:00 +29°C° 0 mm 10 mps 742 mmHg 13%
09:00 +32°C° 0 mm 11 mps 742 mmHg 13%
10:00 +34°C° 0 mm 11 mps 742 mmHg 13%
11:00 +36°C° 0 mm 11 mps 742 mmHg 13%
12:00 +37°C° 0 mm 11 mps 741 mmHg 13%
13:00 +38°C° 0 mm 11 mps 741 mmHg 12%
14:00 +39°C° 0 mm 11 mps 741 mmHg 12%
15:00 +39°C° 0 mm 11 mps 741 mmHg 13%
16:00 +39°C° 0 mm 10 mps 740 mmHg 13%
17:00 +38°C° 0 mm 9 mps 740 mmHg 13%
18:00 +37°C° 0 mm 8 mps 741 mmHg 14%
19:00 +35°C° 0 mm 7 mps 741 mmHg 15%
20:00 +34°C° 0 mm 6 mps 741 mmHg 17%
21:00 +33°C° 0 mm 5 mps 741 mmHg 18%
22:00 +32°C° 0 mm 4 mps 741 mmHg 20%
23:00 +30°C° 0 mm 4 mps 741 mmHg 21%

22 June, Tuesday

Time Temperature Precipitation Wind Pressure Humidity
00:00 +30°C° 0 mm 4 mps 740 mmHg 23%
01:00 +29°C° 0 mm 4 mps 740 mmHg 24%
02:00 +29°C° 0 mm 5 mps 740 mmHg 24%
03:00 +28°C° 0 mm 6 mps 740 mmHg 24%
04:00 +28°C° 0 mm 7 mps 741 mmHg 25%
05:00 +29°C° 0 mm 8 mps 741 mmHg 21%
06:00 +31°C° 0 mm 8 mps 741 mmHg 16%
07:00 +32°C° 0 mm 9 mps 742 mmHg 12%
08:00 +33°C° 0 mm 9 mps 742 mmHg 13%
09:00 +35°C° 0 mm 9 mps 742 mmHg 13%
10:00 +38°C° 0 mm 9 mps 742 mmHg 13%
11:00 +38°C° 0 mm 9 mps 742 mmHg 12%
12:00 +39°C° 0 mm 9 mps 741 mmHg 10%
13:00 +40°C° 0 mm 9 mps 741 mmHg 9%
14:00 +40°C° 0 mm 9 mps 741 mmHg 9%
15:00 +40°C° 0 mm 9 mps 741 mmHg 9%
16:00 +40°C° 0 mm 9 mps 740 mmHg 9%
17:00 +38°C° 0 mm 9 mps 741 mmHg 9%
18:00 +37°C° 0 mm 9 mps 741 mmHg 9%
19:00 +35°C° 0 mm 8 mps 741 mmHg 10%
20:00 +33°C° 0 mm 8 mps 741 mmHg 11%
21:00 +32°C° 0 mm 8 mps 741 mmHg 12%
22:00 +31°C° 0 mm 8 mps 741 mmHg 13%
23:00 +29°C° 0 mm 8 mps 741 mmHg 15%

23 June, Wednesday

Time Temperature Precipitation Wind Pressure Humidity
00:00 +28°C° 0 mm 7 mps 741 mmHg 18%
01:00 +27°C° 0 mm 7 mps 741 mmHg 20%
02:00 +26°C° 0 mm 7 mps 741 mmHg 22%
03:00 +24°C° 0 mm 6 mps 741 mmHg 23%
04:00 +23°C° 0 mm 6 mps 741 mmHg 25%
05:00 +26°C° 0 mm 7 mps 741 mmHg 23%
06:00 +27°C° 0 mm 8 mps 741 mmHg 22%
07:00 +28°C° 0 mm 9 mps 742 mmHg 20%
08:00 +31°C° 0 mm 9 mps 742 mmHg 17%
09:00 +33°C° 0 mm 8 mps 742 mmHg 14%
10:00 +35°C° 0 mm 8 mps 742 mmHg 11%
11:00 +37°C° 0 mm 8 mps 742 mmHg 10%
12:00 +38°C° 0 mm 8 mps 741 mmHg 9%
13:00 +40°C° 0 mm 8 mps 741 mmHg 8%
14:00 +40°C° 0 mm 8 mps 741 mmHg 7%
15:00 +40°C° 0 mm 8 mps 741 mmHg 7%
16:00 +40°C° 0 mm 8 mps 740 mmHg 7%
17:00 +39°C° 0 mm 7 mps 740 mmHg 8%
18:00 +36°C° 0 mm 6 mps 740 mmHg 9%
19:00 +35°C° 0 mm 6 mps 740 mmHg 11%
20:00 +34°C° 0 mm 5 mps 740 mmHg 12%
21:00 +33°C° 0 mm 5 mps 740 mmHg 14%
22:00 +32°C° 0 mm 5 mps 741 mmHg 15%
23:00 +30°C° 0 mm 6 mps 740 mmHg 17%

24 June, Thursday

Time Temperature Precipitation Wind Pressure Humidity
00:00 +29°C° 0 mm 6 mps 740 mmHg 19%
01:00 +29°C° 0 mm 6 mps 740 mmHg 20%
02:00 +28°C° 0 mm 6 mps 740 mmHg 23%
03:00 +27°C° 0 mm 5 mps 740 mmHg 25%
04:00 +27°C° 0 mm 5 mps 740 mmHg 28%
05:00 +28°C° 0 mm 6 mps 741 mmHg 26%
06:00 +30°C° 0 mm 7 mps 741 mmHg 24%
07:00 +32°C° 0 mm 8 mps 742 mmHg 21%
08:00 +34°C° 0 mm 8 mps 742 mmHg 20%
09:00 +37°C° 0 mm 9 mps 741 mmHg 18%
10:00 +39°C° 0 mm 9 mps 741 mmHg 16%
11:00 +40°C° 0 mm 8 mps 741 mmHg 15%
12:00 +41°C° 0 mm 8 mps 741 mmHg 14%
13:00 +43°C° 0 mm 8 mps 740 mmHg 13%
14:00 +43°C° 0 mm 8 mps 740 mmHg 14%
15:00 +43°C° 0 mm 8 mps 740 mmHg 14%
16:00 +43°C° 0 mm 8 mps 739 mmHg 14%
17:00 +41°C° 0 mm 7 mps 739 mmHg 14%
18:00 +40°C° 0 mm 6 mps 739 mmHg 14%
19:00 +39°C° 0 mm 6 mps 739 mmHg 15%
20:00 +38°C° 0 mm 7 mps 739 mmHg 17%
21:00 +36°C° 0 mm 7 mps 739 mmHg 19%
22:00 +35°C° 0 mm 8 mps 740 mmHg 21%
23:00 +33°C° 0 mm 8 mps 740 mmHg 22%
Show more